"read_dt","SO2 (ppb)","flags","PMT voltage (V)","lamp voltage (V)","lamp intensity (Hz)","internal temp (C)","react chamber temp (C)","sample flow (l/min)","pres (mmHg)","SO2 bkg (ppb)","SO2 coefficient"
2017-05-11 00:00:00,1618E-3,5C000400,-0724,0842,11128,028.3,045.5,0.221,760.1,01.16,0.508
2017-05-11 00:01:00,1622E-3,5C000400,-0724,0843,11185,028.3,045.5,0.221,760.1,01.16,0.508
2017-05-11 00:02:00,1653E-3,5C000400,-0724,0843,12458,028.2,045.5,0.221,760.1,01.16,0.508
2017-05-11 00:03:00,1546E-3,5C000400,-0724,0846,10215,028.1,045.4,0.221,760.1,01.16,0.508
2017-05-11 00:04:00,1625E-3,5C000400,-0724,0849,10165,028.0,045.4,0.221,760.1,01.16,0.508
2017-05-11 00:05:00,1657E-3,5C000400,-0724,0846,12436,027.9,045.4,0.221,760.1,01.16,0.508
2017-05-11 00:06:00,1472E-3,5C000400,-0724,0851,9142,027.9,045.4,0.221,760.1,01.16,0.508
2017-05-11 00:07:00,1577E-3,5C000400,-0724,0849,12759,027.9,045.4,0.221,760.1,01.16,0.508
2017-05-11 00:08:00,1518E-3,5C000400,-0724,0847,12612,027.9,045.5,0.221,760.1,01.16,0.508
2017-05-11 00:09:00,1635E-3,5C000400,-0724,0839,11171,027.9,045.4,0.221,760.1,01.16,0.508
2017-05-11 00:10:00,1673E-3,5C000400,-0724,0840,11114,027.8,045.4,0.222,760.1,01.16,0.508
2017-05-11 00:11:00,1650E-3,5C000400,-0724,0838,11236,027.8,045.4,0.222,760.0,01.16,0.508
2017-05-11 00:12:00,1762E-3,5C000400,-0724,0841,11187,027.9,045.5,0.221,760.0,01.16,0.508
2017-05-11 00:13:00,1615E-3,5C000400,-0724,0844,11411,027.8,045.5,0.222,760.0,01.16,0.508
2017-05-11 00:14:00,1550E-3,5C000400,-0724,0851,9137,027.8,045.5,0.222,760.1,01.16,0.508
2017-05-11 00:15:00,1510E-3,5C000400,-0724,0844,11455,027.8,045.4,0.221,760.1,01.16,0.508
2017-05-11 00:16:00,1549E-3,5C000400,-0724,0841,11381,027.7,045.5,0.221,760.2,01.16,0.508
2017-05-11 00:17:00,1422E-3,5C000400,-0724,0844,11479,027.7,045.5,0.221,760.2,01.16,0.508
2017-05-11 00:18:00,1559E-3,5C000400,-0724,0844,11400,027.7,045.4,0.222,760.2,01.16,0.508
2017-05-11 00:19:00,1374E-3,5C000400,-0724,0860,12055,027.7,045.4,0.222,760.2,01.16,0.508
2017-05-11 00:20:00,1543E-3,5C000400,-0724,0842,12453,027.7,045.5,0.221,760.2,01.16,0.508
2017-05-11 00:21:00,1571E-3,5C000400,-0724,0839,11168,027.6,045.4,0.222,760.2,01.16,0.508
2017-05-11 00:22:00,1664E-3,5C000400,-0724,0839,12235,027.7,045.4,0.222,760.2,01.16,0.508
2017-05-11 00:23:00,1686E-3,5C000400,-0724,0841,11147,027.7,045.4,0.222,760.2,01.16,0.508
2017-05-11 00:24:00,1603E-3,5C000400,-0724,0844,12676,027.6,045.5,0.221,760.2,01.16,0.508
2017-05-11 00:25:00,1565E-3,5C000410,-0724,0839,11268,027.6,045.4,0.222,760.2,01.16,0.508
2017-05-11 00:26:00,1509E-3,5C000400,-0724,0841,9957,027.6,045.4,0.222,760.2,01.16,0.508
2017-05-11 00:27:00,1543E-3,5C000400,-0724,0839,12430,027.6,045.4,0.222,760.2,01.16,0.508
2017-05-11 00:28:00,1620E-3,5C000400,-0724,0844,11250,027.6,045.4,0.222,760.2,01.16,0.508
2017-05-11 00:29:00,1581E-3,5C000400,-0724,0841,11304,027.7,045.5,0.222,760.2,01.16,0.508
2017-05-11 00:30:00,1585E-3,5C000400,-0724,0835,9841,027.6,045.5,0.222,760.2,01.16,0.508
2017-05-11 00:31:00,1573E-3,5C000400,-0724,0840,11289,027.6,045.4,0.222,760.2,01.16,0.508
2017-05-11 00:32:00,1710E-3,5C000400,-0724,0839,12218,027.6,045.4,0.222,760.2,01.16,0.508
2017-05-11 00:33:00,1812E-3,5C000400,-0724,0838,12280,027.6,045.5,0.222,760.2,01.16,0.508
2017-05-11 00:34:00,1579E-3,5C000410,-0724,0843,8896,027.6,045.4,0.222,760.2,01.16,0.508
2017-05-11 00:35:00,1558E-3,5C000400,-0724,0848,11553,027.6,045.4,0.222,760.2,01.16,0.508
2017-05-11 00:36:00,1804E-3,5C000410,-0724,0840,8779,027.6,045.4,0.222,760.2,01.16,0.508
2017-05-11 00:37:00,1474E-3,5C000400,-0724,0853,11609,027.5,045.4,0.222,760.2,01.16,0.508
2017-05-11 00:38:00,1436E-3,5C000400,-0724,0845,10331,027.6,045.5,0.222,760.3,01.16,0.508
2017-05-11 00:39:00,1564E-3,5C000400,-0724,0841,10019,027.5,045.5,0.222,760.3,01.16,0.508
2017-05-11 00:40:00,1510E-3,5C000410,-0724,0844,8927,027.5,045.5,0.222,760.3,01.16,0.508
2017-05-11 00:41:00,1609E-3,5C000400,-0724,0844,11234,027.5,045.5,0.222,760.3,01.16,0.508
2017-05-11 00:42:00,1518E-3,5C000400,-0724,0843,11326,027.5,045.4,0.222,760.3,01.16,0.508
2017-05-11 00:43:00,1543E-3,5C000400,-0724,0846,12803,027.6,045.4,0.222,760.3,01.16,0.508
2017-05-11 00:44:00,1578E-3,5C000400,-0724,0840,9956,027.5,045.4,0.222,760.3,01.16,0.508
2017-05-11 00:45:00,1456E-3,5C000400,-0724,0848,10144,027.5,045.4,0.222,760.3,01.16,0.508
2017-05-11 00:46:00,1479E-3,5C000400,-0724,0857,13058,027.5,045.4,0.222,760.4,01.16,0.508
2017-05-11 00:47:00,1500E-3,5C000400,-0724,0843,8832,027.5,045.4,0.222,760.4,01.16,0.508
2017-05-11 00:48:00,1528E-3,5C000400,-0724,0843,10165,027.5,045.4,0.222,760.4,01.16,0.508
2017-05-11 00:49:00,1383E-3,5C000400,-0724,0858,12989,027.5,045.4,0.222,760.4,01.16,0.508
2017-05-11 00:50:00,1543E-3,5C000400,-0724,0843,11137,027.5,045.4,0.222,760.4,01.16,0.508
2017-05-11 00:51:00,1651E-3,5C000400,-0724,0840,12385,027.5,045.5,0.222,760.4,01.16,0.508
2017-05-11 00:52:00,1571E-3,5C000400,-0724,0838,12224,027.5,045.5,0.222,760.4,01.16,0.508
2017-05-11 00:53:00,1840E-3,5C000400,-0724,0838,12248,027.5,045.4,0.222,760.4,01.16,0.508
2017-05-11 00:54:00,1635E-3,5C000400,-0724,0840,12390,027.5,045.4,0.222,760.4,01.16,0.508
2017-05-11 00:55:00,1632E-3,5C000400,-0724,0842,12778,027.5,045.4,0.222,760.4,01.16,0.508
2017-05-11 00:56:00,1581E-3,5C000400,-0724,0842,11379,027.6,045.4,0.222,760.4,01.16,0.508
2017-05-11 00:57:00,1600E-3,5C000400,-0724,0843,11327,027.5,045.5,0.222,760.4,01.16,0.508
2017-05-11 00:58:00,1519E-3,5C000400,-0724,0841,11568,027.5,045.4,0.222,760.4,01.16,0.508
2017-05-11 00:59:00,1431E-3,5C000400,-0724,0846,10239,027.4,045.4,0.222,760.4,01.16,0.508
2017-05-11 01:00:00,1555E-3,5C000400,-0724,0850,10550,027.5,045.4,0.222,760.4,01.16,0.508
2017-05-11 01:01:00,1640E-3,5C000400,-0724,0835,12332,027.5,045.4,0.222,760.4,01.16,0.508
2017-05-11 01:02:00,1593E-3,5C000400,-0724,0848,11608,027.5,045.4,0.222,760.4,01.16,0.508
2017-05-11 01:03:00,1566E-3,5C000400,-0724,0845,12702,027.5,045.4,0.223,760.4,01.16,0.508
2017-05-11 01:04:00,1434E-3,5C000410,-0724,0851,6422,027.4,045.4,0.222,760.4,01.16,0.508
2017-05-11 01:05:00,1460E-3,5C000400,-0724,0850,7825,027.4,045.4,0.222,760.4,01.16,0.508
2017-05-11 01:06:00,1711E-3,5C000400,-0724,0838,10068,027.5,045.4,0.222,760.4,01.16,0.508
2017-05-11 01:07:00,1418E-3,5C000400,-0724,0852,11539,027.4,045.4,0.222,760.5,01.16,0.508
2017-05-11 01:08:00,1491E-3,5C000400,-0724,0847,9110,027.4,045.4,0.223,760.5,01.16,0.508
2017-05-11 01:09:00,1553E-3,5C000400,-0724,0838,12480,027.4,045.4,0.222,760.4,01.16,0.508
2017-05-11 01:10:00,1691E-3,5C000410,-0724,0845,9165,027.5,045.4,0.222,760.4,01.16,0.508
2017-05-11 01:11:00,1577E-3,5C000410,-0724,0843,12787,027.4,045.5,0.223,760.4,01.16,0.508
2017-05-11 01:12:00,1517E-3,5C000400,-0724,0845,10174,027.4,045.5,0.223,760.4,01.16,0.508
2017-05-11 01:13:00,1355E-3,5C000400,-0724,0858,10588,027.5,045.4,0.223,760.4,01.16,0.508
2017-05-11 01:14:00,1396E-3,5C000410,-0724,0844,9340,027.4,045.5,0.222,760.5,01.16,0.508
2017-05-11 01:15:00,1477E-3,5C000410,-0724,0849,8989,027.4,045.5,0.222,760.5,01.16,0.508
2017-05-11 01:16:00,1474E-3,5C000400,-0724,0857,11721,027.4,045.4,0.222,760.5,01.16,0.508
2017-05-11 01:17:00,1340E-3,5C000400,-0724,0852,11556,027.4,045.4,0.222,760.5,01.16,0.508
2017-05-11 01:18:00,1482E-3,5C000400,-0724,0847,11350,027.4,045.4,0.222,760.5,01.16,0.508
2017-05-11 01:19:00,1535E-3,5C000400,-0724,0843,12530,027.4,045.5,0.222,760.5,01.16,0.508
2017-05-11 01:20:00,1540E-3,5C000400,-0724,0841,12277,027.4,045.4,0.222,760.5,01.16,0.508
2017-05-11 01:21:00,1550E-3,5C000400,-0724,0848,12493,027.4,045.4,0.223,760.4,01.16,0.508
2017-05-11 01:22:00,1561E-3,5C000400,-0724,0838,12134,027.4,045.4,0.223,760.5,01.16,0.508
2017-05-11 01:23:00,1634E-3,5C000400,-0724,0836,9613,027.4,045.4,0.222,760.4,01.16,0.508
2017-05-11 01:24:00,1536E-3,5C000400,-0724,0846,7734,027.4,045.4,0.222,760.5,01.16,0.508
2017-05-11 01:25:00,1431E-3,5C000410,-0724,0855,9488,027.4,045.4,0.222,760.5,01.16,0.508
2017-05-11 01:26:00,1467E-3,5C000400,-0724,0843,10142,027.4,045.4,0.223,760.5,01.16,0.508
2017-05-11 01:27:00,1608E-3,5C000400,-0724,0838,12443,027.4,045.4,0.223,760.4,01.16,0.508
2017-05-11 01:28:00,1611E-3,5C000400,-0724,0841,10125,027.4,045.4,0.222,760.4,01.16,0.508
2017-05-11 01:29:00,1563E-3,5C000400,-0724,0847,10433,027.4,045.4,0.222,760.4,01.16,0.508
2017-05-11 01:30:00,1685E-3,5C000410,-0724,0848,11799,027.4,045.4,0.222,760.4,01.16,0.508
2017-05-11 01:31:00,1472E-3,5C000400,-0724,0848,10448,027.4,045.4,0.223,760.4,01.16,0.508
2017-05-11 01:32:00,1393E-3,5C000410,-0724,0859,10679,027.4,045.4,0.223,760.4,01.16,0.508
2017-05-11 01:33:00,1503E-3,5C000400,-0724,0853,9225,027.4,045.4,0.223,760.5,01.16,0.508
2017-05-11 01:34:00,1438E-3,5C000400,-0724,0844,11459,027.4,045.4,0.222,760.5,01.16,0.508
2017-05-11 01:35:00,1295E-3,5C000410,-0724,0855,9543,027.4,045.4,0.222,760.5,01.16,0.508
2017-05-11 01:36:00,1525E-3,5C000400,-0724,0847,12557,027.3,045.5,0.223,760.5,01.16,0.508
2017-05-11 01:37:00,1601E-3,5C000400,-0724,0840,12403,027.3,045.4,0.223,760.5,01.16,0.508
2017-05-11 01:38:00,1608E-3,5C000400,-0724,0839,11412,027.3,045.4,0.223,760.5,01.16,0.508
2017-05-11 01:39:00,1683E-3,5C000400,-0724,0836,11073,027.4,045.4,0.222,760.5,01.16,0.508
2017-05-11 01:40:00,1394E-3,5C000410,-0724,0837,12431,027.3,045.4,0.223,760.5,01.16,0.508
2017-05-11 01:41:00,1663E-3,5C000400,-0724,0838,10329,027.3,045.4,0.223,760.5,01.16,0.508
2017-05-11 01:42:00,1496E-3,5C000400,-0724,0841,12288,027.3,045.4,0.223,760.5,01.16,0.508
2017-05-11 01:43:00,1638E-3,5C000400,-0724,0839,12395,027.3,045.4,0.223,760.5,01.16,0.508
2017-05-11 01:44:00,1575E-3,5C000400,-0724,0836,11314,027.3,045.4,0.222,760.5,01.16,0.508
2017-05-11 01:45:00,1663E-3,5C000400,-0724,0840,12627,027.3,045.4,0.223,760.5,01.16,0.508
2017-05-11 01:46:00,1565E-3,5C000400,-0724,0842,12529,027.3,045.5,0.223,760.5,01.16,0.508
2017-05-11 01:47:00,1662E-3,5C000400,-0724,0839,11380,027.3,045.4,0.223,760.5,01.16,0.508
2017-05-11 01:48:00,1455E-3,5C000400,-0724,0843,10098,027.3,045.4,0.223,760.5,01.16,0.508
2017-05-11 01:49:00,1474E-3,5C000400,-0724,0850,10260,027.3,045.4,0.222,760.5,01.16,0.508
2017-05-11 01:50:00,1652E-3,5C000400,-0724,0841,11294,027.2,045.4,0.223,760.5,01.16,0.508
2017-05-11 01:51:00,1410E-3,5C000400,-0724,0843,11740,027.2,045.4,0.223,760.5,01.16,0.508
2017-05-11 01:52:00,1657E-3,5C000400,-0724,0840,10416,027.2,045.4,0.223,760.5,01.16,0.508
2017-05-11 01:53:00,1514E-3,5C000400,-0724,0839,12497,027.2,045.4,0.223,760.5,01.16,0.508
2017-05-11 01:54:00,1553E-3,5C000400,-0724,0845,12657,027.2,045.4,0.223,760.5,01.16,0.508
2017-05-11 01:55:00,1641E-3,5C000400,-0724,0843,10133,027.2,045.4,0.222,760.5,01.16,0.508
2017-05-11 01:56:00,1576E-3,5C000400,-0724,0840,12392,027.2,045.4,0.223,760.5,01.16,0.508
2017-05-11 01:57:00,1591E-3,5C000400,-0724,0840,12718,027.2,045.4,0.223,760.5,01.16,0.508
2017-05-11 01:58:00,1524E-3,5C000400,-0724,0844,12499,027.1,045.4,0.223,760.5,01.16,0.508
2017-05-11 01:59:00,1676E-3,5C000400,-0724,0839,10460,027.1,045.4,0.223,760.5,01.16,0.508
2017-05-11 02:00:00,1610E-3,5C000400,-0724,0844,11075,027.1,045.4,0.223,760.5,01.16,0.508
2017-05-11 02:01:00,1459E-3,5C000400,-0724,0839,11419,027.1,045.4,0.223,760.6,01.16,0.508
2017-05-11 02:02:00,1352E-3,5C000400,-0724,0848,11404,027.0,045.4,0.223,760.6,01.16,0.508
2017-05-11 02:03:00,1602E-3,5C000400,-0724,0839,11331,027.0,045.4,0.223,760.6,01.16,0.508
2017-05-11 02:04:00,1420E-3,5C000400,-0724,0835,11084,027.0,045.4,0.223,760.6,01.16,0.508
2017-05-11 02:05:00,1551E-3,5C000400,-0724,0845,11070,027.0,045.4,0.223,760.6,01.16,0.508
2017-05-11 02:06:00,1510E-3,5C000410,-0724,0845,11896,027.0,045.4,0.223,760.6,01.16,0.508
2017-05-11 02:07:00,1500E-3,5C000400,-0724,0846,11370,027.1,045.4,0.223,760.6,01.16,0.508
2017-05-11 02:08:00,1494E-3,5C000400,-0724,0845,13033,027.1,045.4,0.223,760.6,01.16,0.508
2017-05-11 02:09:00,1588E-3,5C000400,-0724,0845,12737,027.1,045.4,0.223,760.6,01.16,0.508
2017-05-11 02:10:00,1433E-3,5C000400,-0724,0846,12784,027.1,045.4,0.223,760.7,01.16,0.508
2017-05-11 02:11:00,1365E-3,5C000400,-0724,0848,10664,027.1,045.4,0.223,760.6,01.16,0.508
2017-05-11 02:12:00,1458E-3,5C000400,-0724,0847,9151,027.1,045.4,0.224,760.6,01.16,0.508
2017-05-11 02:13:00,1528E-3,5C000400,-0724,0849,10166,027.1,045.4,0.224,760.6,01.16,0.508
2017-05-11 02:14:00,1508E-3,5C000400,-0724,0843,12235,027.0,045.4,0.223,760.7,01.16,0.508
2017-05-11 02:15:00,1408E-3,5C000400,-0724,0851,10310,027.0,045.4,0.223,760.7,01.16,0.508
2017-05-11 02:16:00,1641E-3,5C000400,-0724,0847,12722,027.0,045.4,0.223,760.7,01.16,0.508
2017-05-11 02:17:00,1622E-3,5C000400,-0724,0844,10287,027.0,045.4,0.223,760.7,01.16,0.508
2017-05-11 02:18:00,1490E-3,5C000400,-0724,0840,10207,027.0,045.4,0.223,760.7,01.16,0.508
2017-05-11 02:19:00,1549E-3,5C000400,-0724,0844,12610,027.0,045.4,0.223,760.7,01.16,0.508
2017-05-11 02:20:00,1547E-3,5C000400,-0724,0852,12836,026.9,045.4,0.223,760.7,01.16,0.508
2017-05-11 02:21:00,1599E-3,5C000400,-0724,0841,8912,026.9,045.4,0.223,760.7,01.16,0.508
2017-05-11 02:22:00,1581E-3,5C000400,-0724,0845,10204,026.9,045.4,0.223,760.7,01.16,0.508
2017-05-11 02:23:00,1308E-3,5C000400,-0724,0855,9008,026.9,045.4,0.224,760.8,01.16,0.508
2017-05-11 02:24:00,1355E-3,5C000400,-0724,0860,13009,026.9,045.4,0.223,760.7,01.16,0.508
2017-05-11 02:25:00,1450E-3,5C000410,-0724,0846,9063,027.0,045.4,0.223,760.8,01.16,0.508
2017-05-11 02:26:00,1396E-3,5C000410,-0724,0843,11541,026.9,045.4,0.223,760.7,01.16,0.508
2017-05-11 02:27:00,1614E-3,5C000400,-0724,0844,10376,027.0,045.4,0.224,760.8,01.16,0.508
2017-05-11 02:28:00,1487E-3,5C000410,-0724,0847,11405,026.9,045.4,0.223,760.8,01.16,0.508
2017-05-11 02:29:00,1417E-3,5C000400,-0724,0844,12894,026.9,045.4,0.223,760.8,01.16,0.508
2017-05-11 02:30:00,1651E-3,5C000410,-0724,0844,11489,026.9,045.4,0.223,760.8,01.16,0.508
2017-05-11 02:31:00,1533E-3,5C000400,-0724,0842,12319,026.9,045.4,0.224,760.8,01.16,0.508
2017-05-11 02:32:00,1466E-3,5C000400,-0724,0849,11630,026.9,045.4,0.224,760.8,01.16,0.508
2017-05-11 02:33:00,1485E-3,5C000410,-0724,0853,6987,026.8,045.4,0.223,760.8,01.16,0.508
2017-05-11 02:34:00,1375E-3,5C000400,-0724,0849,11480,026.8,045.4,0.223,760.8,01.16,0.508
2017-05-11 02:35:00,1546E-3,5C000400,-0724,0838,12623,026.8,045.4,0.223,760.8,01.16,0.508
2017-05-11 02:36:00,1506E-3,5C000400,-0724,0849,11251,026.8,045.4,0.224,760.8,01.16,0.508
2017-05-11 02:37:00,1361E-3,5C000400,-0724,0858,13161,026.8,045.4,0.224,760.8,01.16,0.508
2017-05-11 02:38:00,1388E-3,5C000400,-0724,0853,11788,026.8,045.4,0.224,760.8,01.16,0.508
2017-05-11 02:39:00,1362E-3,5C000400,-0724,0856,10283,026.8,045.4,0.223,760.8,01.16,0.508
2017-05-11 02:40:00,1404E-3,5C000410,-0724,0860,10758,026.8,045.4,0.224,760.8,01.16,0.508
2017-05-11 02:41:00,1467E-3,5C000400,-0724,0848,12652,026.8,045.4,0.224,760.8,01.16,0.508
2017-05-11 02:42:00,1391E-3,5C000400,-0724,0847,11527,026.8,045.4,0.223,760.8,01.16,0.508
2017-05-11 02:43:00,1560E-3,5C000400,-0724,0846,12940,026.8,045.4,0.224,760.9,01.16,0.508
2017-05-11 02:44:00,1474E-3,5C000400,-0724,0848,10073,026.8,045.4,0.224,760.9,01.16,0.508
2017-05-11 02:45:00,1589E-3,5C000400,-0724,0841,10278,026.8,045.4,0.224,760.9,01.16,0.508
2017-05-11 02:46:00,1591E-3,5C000400,-0724,0840,11443,026.8,045.4,0.223,760.9,01.16,0.508
2017-05-11 02:47:00,1645E-3,5C000400,-0724,0841,12456,026.8,045.4,0.224,760.9,01.16,0.508
2017-05-11 02:48:00,1546E-3,5C000400,-0724,0841,10146,026.8,045.4,0.224,760.9,01.16,0.508
2017-05-11 02:49:00,1594E-3,5C000400,-0724,0841,11089,026.8,045.4,0.224,760.9,01.16,0.508
2017-05-11 02:50:00,1647E-3,5C000400,-0724,0843,12633,026.8,045.4,0.223,760.9,01.16,0.508
2017-05-11 02:51:00,1526E-3,5C000400,-0724,0844,9946,026.8,045.4,0.224,760.9,01.16,0.508
2017-05-11 02:52:00,1722E-3,5C000400,-0724,0842,11522,026.8,045.4,0.224,760.9,01.16,0.508
2017-05-11 02:53:00,1651E-3,5C000400,-0724,0840,12472,026.8,045.4,0.224,760.9,01.16,0.508
2017-05-11 02:54:00,1620E-3,5C000400,-0724,0845,12786,026.7,045.4,0.224,760.9,01.16,0.508
2017-05-11 02:55:00,1636E-3,5C000400,-0724,0845,11655,026.7,045.4,0.224,760.9,01.16,0.508
2017-05-11 02:56:00,1493E-3,5C000400,-0724,0838,11210,026.7,045.4,0.224,760.9,01.16,0.508
2017-05-11 02:57:00,1586E-3,5C000400,-0724,0842,11325,026.7,045.4,0.224,760.9,01.16,0.508
2017-05-11 02:58:00,1568E-3,5C000400,-0724,0844,11761,026.7,045.4,0.224,760.9,01.16,0.508
2017-05-11 02:59:00,1554E-3,5C000400,-0724,0838,12479,026.8,045.4,0.224,760.9,01.16,0.508
2017-05-11 03:00:00,1637E-3,5C000400,-0724,0852,11603,026.7,045.4,0.224,760.9,01.16,0.508
2017-05-11 03:01:00,1532E-3,5C000400,-0724,0846,8865,026.7,045.4,0.224,760.9,01.16,0.508
2017-05-11 03:02:00,1507E-3,5C000400,-0724,0842,11242,026.7,045.4,0.224,760.9,01.16,0.508
2017-05-11 03:03:00,1623E-3,5C000400,-0724,0836,10936,026.7,045.4,0.223,760.9,01.16,0.508
2017-05-11 03:04:00,1629E-3,5C000400,-0724,0840,12397,026.7,045.4,0.224,761.0,01.16,0.508
2017-05-11 03:05:00,1655E-3,5C000400,-0724,0839,11113,026.6,045.4,0.224,761.0,01.16,0.508
2017-05-11 03:06:00,1635E-3,5C000400,-0724,0836,12302,026.6,045.4,0.224,761.0,01.16,0.508
2017-05-11 03:07:00,1556E-3,5C000400,-0724,0840,12560,026.6,045.4,0.224,761.0,01.16,0.508
2017-05-11 03:08:00,1747E-3,5C000400,-0724,0842,11099,026.6,045.4,0.224,761.0,01.16,0.508
2017-05-11 03:09:00,1674E-3,5C000400,-0724,0836,12287,026.6,045.4,0.224,761.0,01.16,0.508
2017-05-11 03:10:00,1685E-3,5C000400,-0724,0838,11117,026.6,045.4,0.225,760.9,01.16,0.508
2017-05-11 03:11:00,1647E-3,5C000400,-0724,0839,12299,026.6,045.4,0.224,760.9,01.16,0.508
2017-05-11 03:12:00,1564E-3,5C000400,-0724,0839,11173,026.7,045.4,0.224,760.9,01.16,0.508
2017-05-11 03:13:00,1534E-3,5C000400,-0724,0844,11463,026.7,045.4,0.224,760.9,01.16,0.508
2017-05-11 03:14:00,1482E-3,5C000400,-0724,0847,11586,026.7,045.4,0.224,761.0,01.16,0.508
2017-05-11 03:15:00,1547E-3,5C000400,-0724,0842,11282,026.7,045.4,0.224,761.0,01.16,0.508
2017-05-11 03:16:00,1545E-3,5C000400,-0724,0842,11179,026.7,045.4,0.224,761.0,01.16,0.508
2017-05-11 03:17:00,1467E-3,5C000400,-0724,0838,11101,026.7,045.4,0.224,761.0,01.16,0.508
2017-05-11 03:18:00,1785E-3,5C000400,-0724,0841,11185,026.6,045.4,0.224,761.0,01.16,0.508
2017-05-11 03:19:00,1606E-3,5C000400,-0724,0841,11189,026.6,045.4,0.224,761.0,01.16,0.508
2017-05-11 03:20:00,1641E-3,5C000410,-0724,0845,11483,026.6,045.4,0.224,761.0,01.16,0.508
2017-05-11 03:21:00,1678E-3,5C000400,-0724,0840,12344,026.6,045.4,0.224,761.0,01.16,0.508
2017-05-11 03:22:00,1623E-3,5C000400,-0724,0843,12596,026.6,045.4,0.224,761.0,01.16,0.508
2017-05-11 03:23:00,1672E-3,5C000400,-0724,0840,12363,026.6,045.4,0.224,761.0,01.16,0.508
2017-05-11 03:24:00,1736E-3,5C000410,-0724,0837,12513,026.6,045.4,0.224,761.0,01.16,0.508
2017-05-11 03:25:00,1738E-3,5C000400,-0724,0839,12192,026.5,045.4,0.224,761.0,01.16,0.508
2017-05-11 03:26:00,1711E-3,5C000400,-0724,0841,11206,026.6,045.4,0.224,761.0,01.16,0.508
2017-05-11 03:27:00,1748E-3,5C000400,-0724,0838,9792,026.6,045.4,0.224,761.0,01.16,0.508
2017-05-11 03:28:00,1508E-3,5C000400,-0724,0839,11276,026.6,045.4,0.224,761.0,01.16,0.508
2017-05-11 03:29:00,1348E-3,5C000400,-0724,0858,7934,026.6,045.4,0.224,761.0,01.16,0.508
2017-05-11 03:30:00,1389E-3,5C000410,-0724,0845,11357,026.6,045.4,0.224,761.1,01.16,0.508
2017-05-11 03:31:00,1381E-3,5C000400,-0724,0852,13023,026.6,045.4,0.224,761.1,01.16,0.508
2017-05-11 03:32:00,1468E-3,5C000400,-0724,0851,11490,026.6,045.4,0.224,761.1,01.16,0.508
2017-05-11 03:33:00,1347E-3,5C000400,-0724,0861,13196,026.6,045.4,0.224,761.1,01.16,0.508
2017-05-11 03:34:00,1663E-3,5C000400,-0724,0840,12206,026.6,045.4,0.224,761.1,01.16,0.508
2017-05-11 03:35:00,1652E-3,5C000410,-0724,0843,8829,026.6,045.4,0.224,761.1,01.16,0.508
2017-05-11 03:36:00,1580E-3,5C000400,-0724,0838,11219,026.6,045.4,0.224,761.1,01.16,0.508
2017-05-11 03:37:00,1501E-3,5C000400,-0724,0849,11515,026.5,045.4,0.224,761.1,01.16,0.508
2017-05-11 03:38:00,1519E-3,5C000400,-0724,0855,11872,026.6,045.4,0.224,761.1,01.16,0.508
2017-05-11 03:39:00,1250E-3,5C000400,-0724,0853,9235,026.5,045.4,0.224,761.1,01.16,0.508
2017-05-11 03:40:00,1361E-3,5C000400,-0724,0857,12952,026.5,045.4,0.224,761.1,01.16,0.508
2017-05-11 03:41:00,1586E-3,5C000400,-0724,0847,10199,026.5,045.4,0.224,761.1,01.16,0.508
2017-05-11 03:42:00,1565E-3,5C000400,-0724,0848,9162,026.5,045.4,0.224,761.1,01.16,0.508
2017-05-11 03:43:00,1629E-3,5C000400,-0724,0840,12214,026.5,045.4,0.224,761.1,01.16,0.508
2017-05-11 03:44:00,1780E-3,5C000400,-0724,0837,12032,026.5,045.4,0.224,761.1,01.16,0.508
2017-05-11 03:45:00,1481E-3,5C000400,-0724,0850,9070,026.5,045.4,0.224,761.1,01.16,0.508
2017-05-11 03:46:00,1334E-3,5C000400,-0724,0852,10463,026.5,045.4,0.224,761.1,01.16,0.508
2017-05-11 03:47:00,1518E-3,5C000400,-0724,0853,10197,026.5,045.4,0.224,761.1,01.16,0.508
2017-05-11 03:48:00,1475E-3,5C000400,-0724,0855,11733,026.5,045.4,0.224,761.1,01.16,0.508
2017-05-11 03:49:00,1384E-3,5C000400,-0724,0864,12109,026.5,045.4,0.224,761.1,01.16,0.508
2017-05-11 03:50:00,1337E-3,5C000400,-0724,0858,13116,026.5,045.4,0.224,761.1,01.16,0.508
2017-05-11 03:51:00,1359E-3,5C000400,-0724,0863,12033,026.5,045.4,0.225,761.1,01.16,0.508
2017-05-11 03:52:00,1156E-3,5C000400,-0724,0864,12354,026.5,045.4,0.224,761.1,01.16,0.508
2017-05-11 03:53:00,1129E-3,5C000410,-0724,0878,9836,026.5,045.4,0.224,761.1,01.16,0.508
2017-05-11 03:54:00,1351E-3,5C000400,-0724,0874,10972,026.5,045.4,0.224,761.1,01.16,0.508
2017-05-11 03:55:00,1425E-3,5C000400,-0724,0859,11790,026.5,045.4,0.224,761.1,01.16,0.508
2017-05-11 03:56:00,1498E-3,5C000410,-0724,0848,10423,026.5,045.4,0.224,761.1,01.16,0.508
2017-05-11 03:57:00,1508E-3,5C000400,-0724,0842,11387,026.5,045.4,0.224,761.1,01.16,0.508
2017-05-11 03:58:00,1604E-3,5C000410,-0724,0854,10663,026.5,045.4,0.225,761.1,01.16,0.508
2017-05-11 03:59:00,1153E-3,5C000400,-0724,0868,6723,026.5,045.4,0.224,761.1,01.16,0.508
2017-05-11 04:00:00,1214E-3,5C000410,-0724,0866,8164,026.5,045.4,0.224,761.1,01.16,0.508
2017-05-11 04:01:00,1330E-3,5C000410,-0724,0863,10904,026.5,045.4,0.224,761.1,01.16,0.508
2017-05-11 04:02:00,1403E-3,5C000410,-0724,0863,10860,026.5,045.4,0.225,761.2,01.16,0.508
2017-05-11 04:03:00,1015E-3,5C000410,-0724,0887,10096,026.5,045.4,0.225,761.2,01.16,0.508
2017-05-11 04:04:00,1337E-3,5C000410,-0724,0864,10833,026.5,045.4,0.224,761.2,01.16,0.508
2017-05-11 04:05:00,1321E-3,5C000410,-0724,0862,10871,026.5,045.4,0.224,761.2,01.16,0.508
2017-05-11 04:06:00,1424E-3,5C000400,-0724,0847,11589,026.5,045.4,0.225,761.2,01.16,0.508
2017-05-11 04:07:00,1701E-3,5C000400,-0724,0839,11280,026.5,045.4,0.224,761.2,01.16,0.508
2017-05-11 04:08:00,1462E-3,5C000400,-0724,0850,9179,026.5,045.4,0.224,761.2,01.16,0.508
2017-05-11 04:09:00,1220E-3,5C000410,-0724,0874,7019,026.4,045.4,0.224,761.2,01.16,0.508
2017-05-11 04:10:00,1304E-3,5C000410,-0724,0869,9629,026.4,045.4,0.225,761.2,01.16,0.508
2017-05-11 04:11:00,1353E-3,5C000410,-0724,0872,9791,026.5,045.4,0.225,761.2,01.16,0.508
2017-05-11 04:12:00,1085E-3,5C000410,-0724,0870,9680,026.5,045.4,0.225,761.2,01.16,0.508
2017-05-11 04:13:00,1007E-3,5C000410,-0724,0871,9573,026.4,045.4,0.225,761.2,01.16,0.508
2017-05-11 04:14:00,1316E-3,5C000400,-0724,0861,10666,026.4,045.4,0.224,761.3,01.16,0.508
2017-05-11 04:15:00,1341E-3,5C000400,-0724,0858,10754,026.4,045.4,0.225,761.3,01.16,0.508
2017-05-11 04:16:00,1368E-3,5C000400,-0724,0860,11872,026.4,045.4,0.225,761.3,01.16,0.508
2017-05-11 04:17:00,1361E-3,5C000400,-0724,0855,11793,026.4,045.4,0.224,761.3,01.16,0.508
2017-05-11 04:18:00,1459E-3,5C000400,-0724,0850,11348,026.4,045.4,0.224,761.3,01.16,0.508
2017-05-11 04:19:00,1505E-3,5C000400,-0724,0844,10227,026.4,045.4,0.225,761.3,01.16,0.508
2017-05-11 04:20:00,1479E-3,5C000410,-0724,0848,9005,026.4,045.4,0.225,761.3,01.16,0.508